San Jose, Costa Rica

4:26 PM CST on September 24, 2017 (GMT -0600)
Juan Santamaria International

Weather History for MROC - February, 2014

Change the Weather History Date:

Thursday, February 27, 2014

  Actual Average Record
Temperature  
Mean Temperature 76 °F -  
Max Temperature 89 °F 83 °F 89 °F (2005)
Min Temperature 62 °F 64 °F 53 °F (2015)
Cooling Degree Days 10    
Growing Degree Days 26 (Base 50)    
Moisture  
Dew Point 58 °F    
Average Humidity 55    
Maximum Humidity 78    
Minimum Humidity 19    
Precipitation  
Precipitation 0.00 in 0.02 in - ()
Sea Level Pressure  
Sea Level Pressure 29.94 in    
Wind  
Wind Speed 6 mph ()    
Max Wind Speed 14 mph    
Max Gust Speed -    
Visibility 7.9 miles    
Events      
Averages and records for this station are not official NWS values.
T = Trace of Precipitation, MM = Missing Value Source: Averaged Metar Reports

Daily Weather History Graph

Daily Weather History Graph

Search for Another Location

Airport or City:

Trip Planner

Search our weather history database for the weather conditions in past years. The results will help you decide how hot, cold, wet, or windy it might be!

Date:

Astronomy

Feb. 27, 2014 Rise Set
Actual Time 5:52 AM CST 5:47 PM CST
Civil Twilight 5:30 AM CST 6:08 PM CST
Nautical Twilight 5:06 AM CST 6:32 PM CST
Astronomical Twilight 4:41 AM CST 6:57 PM CST
Moon 4:10 AM CST (2/27) 4:20 PM CST (2/27)
Length of Visible Light 12h 37m
Length of Day
11h 55m
Waning Crescent, 4% of the Moon is Illuminated
Feb 27
Waning Crescent
Mar 1
New
Mar 8
First Quarter
Mar 16
Full
Mar 23
Last Quarter

Hourly Weather History & Observations

Time (CST) Temp. Heat Index Dew Point Humidity Pressure Visibility Wind Dir Wind Speed Gust Speed Precip Events Conditions
12:00 AM 66 °F - 58 °F 70% 29.83 in 12 mi NE 6.9 mph - -   Scattered Clouds
12:00 AM 66.2 °F - 59.0 °F 78% 29.99 in - NE 6.9 mph - N/A   Clear
1:00 AM 64.4 °F - 57.2 °F 77% 29.98 in - ENE 4.6 mph - N/A   Clear
2:00 AM 64.4 °F - 57.2 °F 77% 29.96 in - ENE 5.8 mph - N/A   Clear
3:00 AM 64 °F - 57 °F 71% 29.81 in 12 mi East 5.8 mph - -  
3:00 AM 64.4 °F - 57.2 °F 77% 29.96 in - East 5.8 mph - N/A   Clear
4:00 AM 64.4 °F - 57.2 °F 77% 29.97 in - East 5.8 mph - N/A   Clear
5:00 AM 64.4 °F - 57.2 °F 77% 29.98 in - East 5.8 mph - N/A   Clear
6:00 AM 64.4 °F - 57.2 °F 77% 30.00 in - NE 5.8 mph - N/A   Clear
7:00 AM 69.8 °F - 57.2 °F 64% 30.02 in - ENE 5.8 mph - N/A   Clear
8:00 AM 75.2 °F - 59.0 °F 57% 30.03 in 6.2 mi East 6.9 mph - N/A   Partly Cloudy
9:00 AM 80 °F - 57 °F 35% 29.90 in 12 mi East 6.9 mph - -   Scattered Clouds
9:00 AM 78.8 °F - 57.2 °F 47% 30.04 in 6.2 mi East 6.9 mph - N/A   Partly Cloudy
10:00 AM 82.4 °F 82.0 °F 57.2 °F 42% 30.03 in 6.2 mi ESE 5.8 mph - N/A   Partly Cloudy
11:00 AM 84.2 °F 83.0 °F 55.4 °F 37% 30.00 in 6.2 mi East 5.8 mph - N/A   Scattered Clouds
12:00 PM 89 °F - 52 °F 19% 29.79 in 12 mi SE 2.3 mph - -   Scattered Clouds
12:00 PM 89.6 °F - 51.8 °F 27% 29.96 in 6.2 mi SE 2.3 mph - N/A   Scattered Clouds
1:00 PM 84.2 °F 83.0 °F 55.4 °F 37% 29.93 in 6.2 mi East 3.5 mph - N/A   Scattered Clouds
1:40 PM 86.0 °F 84.5 °F 55.4 °F 35% 29.91 in 6.2 mi SW 8.1 mph - N/A   Scattered Clouds
2:00 PM 86.0 °F 84.2 °F 53.6 °F 33% 29.91 in 6.2 mi SSW 6.9 mph - N/A   Scattered Clouds
3:00 PM 87 °F - 58 °F 27% 29.74 in 12 mi WSW 13.8 mph - -   Partly Cloudy
3:00 PM 87.8 °F 86.5 °F 57.2 °F 35% 29.90 in 6.2 mi WSW 13.8 mph - N/A   Scattered Clouds
4:00 PM 82.4 °F 82.0 °F 57.2 °F 42% 29.91 in 6.2 mi West 11.5 mph - N/A   Scattered Clouds
5:00 PM 80.6 °F 80.8 °F 57.2 °F 45% 29.93 in 6.2 mi WSW 8.1 mph - N/A   Scattered Clouds
6:00 PM 76 °F - 58 °F 43% 29.83 in 12 mi WSW 8.1 mph - -   Scattered Clouds
6:00 PM 75.2 °F - 57.2 °F 53% 29.95 in 6.2 mi WSW 8.1 mph - N/A   Scattered Clouds
7:00 PM 75.2 °F - 59.0 °F 57% 29.99 in 6.2 mi SSW 3.5 mph - N/A   Scattered Clouds
8:00 PM 73.4 °F - 59.0 °F 61% 30.01 in 6.2 mi Calm Calm - N/A   Scattered Clouds
9:00 PM 72 °F - 62 °F 64% 29.85 in 12 mi ESE 3.5 mph - -   Scattered Clouds
9:00 PM 71.6 °F - 62.6 °F 73% 30.01 in 6.2 mi ESE 3.5 mph - N/A   Scattered Clouds
10:00 PM 71.6 °F - 62.6 °F 73% 30.03 in 6.2 mi East 4.6 mph - N/A   Scattered Clouds
11:00 PM 69.8 °F - 62.6 °F 78% 30.03 in 6.2 mi East 3.5 mph - N/A   Scattered Clouds